Parsons, KS

4:13 PM CDT on September 22, 2019 (GMT -0500)
Tri-City

Weather History for KPPF - July, 2019

Change the Weather History Date:

Tuesday, July 30, 2019

  Actual Average Record
Temperature  
Mean Temperature 76 °F -  
Max Temperature 90 °F 91 °F 107 °F (1980)
Min Temperature 62 °F 67 °F 53 °F (1971)
Cooling Degree Days 11    
Growing Degree Days 26 (Base 50)    
Moisture  
Dew Point 66 °F    
Average Humidity 72    
Maximum Humidity 100    
Minimum Humidity 43    
Precipitation  
Precipitation 0.00 in - - ()
Sea Level Pressure  
Sea Level Pressure 30.04 in    
Wind  
Wind Speed 2 mph (ESE)    
Max Wind Speed 6 mph    
Max Gust Speed -    
Visibility 10 miles    
Events      
Averages and records for this station are not official NWS values.
T = Trace of Precipitation, MM = Missing Value Source: NWS Daily Summary

Daily Weather History Graph

Daily Weather History Graph

Search for Another Location

Airport or City:

Astronomy

Jul. 30, 2019 Rise Set
Actual Time 6:24 AM CDT 8:31 PM CDT
Civil Twilight 5:55 AM CDT 9:00 PM CDT
Nautical Twilight 5:20 AM CDT 9:36 PM CDT
Astronomical Twilight 4:41 AM CDT 10:14 PM CDT
Moon 4:35 AM CDT (7/30) 7:36 PM CDT (7/30)
Length of Visible Light 15h 05m
Length of Day
14h 07m
Waning Crescent, 3% of the Moon is Illuminated
Jul 30
Waning Crescent
Jul 31
New
Aug 7
First Quarter
Aug 15
Full
Aug 23
Last Quarter

Hourly Weather History & Observations

Time (CDT) Temp. Heat Index Dew Point Humidity Pressure Visibility Wind Dir Wind Speed Gust Speed Precip Events Conditions
12:52 AM 69.1 °F - 64.9 °F 87% 30.02 in 10.0 mi Calm Calm - N/A   Clear
1:52 AM 68.0 °F - 64.9 °F 90% 30.03 in 10.0 mi Calm Calm - N/A   Clear
2:52 AM 68.0 °F - 64.0 °F 87% 30.02 in 10.0 mi NNE 3.5 mph - N/A   Clear
3:52 AM 64.9 °F - 64.0 °F 97% 30.03 in 10.0 mi Calm Calm - N/A   Clear
4:52 AM 64.0 °F - 63.0 °F 96% 30.03 in 10.0 mi Calm Calm - N/A   Clear
5:52 AM 62.1 °F - 62.1 °F 100% 30.05 in 10.0 mi Calm Calm - N/A   Clear
6:52 AM 64.0 °F - 63.0 °F 96% 30.05 in 10.0 mi Calm Calm - N/A   Clear
7:52 AM 71.1 °F - 68.0 °F 90% 30.07 in 10.0 mi Calm Calm - N/A   Clear
8:52 AM 78.1 °F - 66.9 °F 68% 30.08 in 10.0 mi Variable 3.5 mph - N/A   Clear
9:52 AM 81.0 °F 83.3 °F 66.9 °F 62% 30.08 in 10.0 mi SE 5.8 mph - N/A   Clear
10:52 AM 84.0 °F 86.3 °F 66.0 °F 55% 30.09 in 10.0 mi Variable 5.8 mph - N/A   Clear
11:52 AM 84.9 °F 86.6 °F 64.9 °F 51% 30.08 in 10.0 mi North - - N/A   Clear
12:52 PM 87.1 °F 89.2 °F 66.0 °F 49% 30.07 in 10.0 mi ESE 5.8 mph - N/A   Clear
1:52 PM 88.0 °F 89.6 °F 64.9 °F 46% 30.06 in 10.0 mi Variable 3.5 mph - N/A   Clear
2:52 PM 89.1 °F 91.3 °F 66.0 °F 46% 30.05 in 10.0 mi Variable 5.8 mph - N/A   Clear
3:52 PM 90.0 °F 91.7 °F 64.9 °F 43% 30.03 in 10.0 mi Variable 3.5 mph - N/A   Clear
4:52 PM 89.1 °F 91.3 °F 66.0 °F 46% 30.02 in 10.0 mi SE 3.5 mph - N/A   Clear
5:52 PM 88.0 °F 90.3 °F 66.0 °F 48% 30.01 in 10.0 mi Variable 4.6 mph - N/A   Clear
6:52 PM 86.0 °F 88.8 °F 66.9 °F 53% 30.01 in 10.0 mi Variable 4.6 mph - N/A   Clear
7:52 PM 84.0 °F 87.0 °F 68.0 °F 58% 30.01 in 10.0 mi Calm Calm - N/A   Clear
8:52 PM 75.0 °F - 70.0 °F 84% 30.01 in 10.0 mi Calm Calm - N/A   Clear
9:52 PM 73.0 °F - 69.1 °F 87% 30.04 in 10.0 mi Calm Calm - N/A   Clear
10:52 PM 71.1 °F - 69.1 °F 93% 30.04 in 10.0 mi Calm Calm - N/A   Clear
11:52 PM 72.0 °F - 68.0 °F 87% 30.05 in 10.0 mi East 3.5 mph - N/A   Clear